星链-36183(STARLINK-36183)

导读 | 豆包AI

STARLINK-36183是美国太空探索技术公司SpaceX星链互联网卫星星座中的一员,于2025年12月17日在美国发射升空,属于星链低轨卫星组网批次。星链星座旨在为全球提供高速低延迟卫星互联网服务,该卫星入轨后,将进一步扩充星链星座规模,提升星座全球覆盖能力与服务性能。

Basic Information
目录编号:
67173
目录名称:
STARLINK-36183
国际标识:
2025-303L
轨道中心:
EARTH
卫星名称:
星链-36183
卫星全名:
星链-36183(STARLINK-36183)
卫星状态:
在轨 (已飞行133 天)
发射日期:
2025-12-17 UTC
国别 :
美国 (US)
星等 :
--
Orbit Information
数据来源 国际轨道数据 AOE轨道数据
星历时间 2026-04-29T02:45:03+0800
8小时前
查看轨道信息
2026-04-26T23:00:00+0800
2天前
查看轨道信息
半长轴 6861.278km 6861.202km
偏心率 0.0001447 0.0001455
轨道倾角 43.003° 43.006°
近地点辐角 268.023° 259.176°
升交点赤经 28.029° 40.210°
平近点角 92.046° 109.081°
近地点 482.148km 482.066km
远地点 484.134km 484.064km
周期 94.269分钟 94.267分钟
每日圈数 15.275494 15.27575
Detailed Information
固有亮度:
5
最大亮度:
2.5
卫星平台:
Starlink V1.0
覆盖范围:
全球
运营商:
太空探索技术公司
运营商所在国:
美国
制造商(研发单位):
太空探索技术公司
制造商所在国:
美国
使用方式:
暂无
Satellite Introduction
Starlink 计划是 SpaceX 推出的全球卫星互联网项目,通过发射低轨道卫星,为全球尤其是偏远地区提供高速、低延迟的互联网服务。自 2019 年起,Starlink 已部署数千颗卫星,旨在缩小全球数字鸿沟,推动互联网普及。该项目还为军事、航空等行业提供通信支持,带来广泛经济效益。
2D Orbit Map
3D Orbit Map
Orbit Altitude Analysis Chart
Orbit Inclination Analysis Chart
Orbit Comprehensive Analysis Chart
View Comprehensive Chart